Location: Maccacari
(45.1333°N, 11.1333°E)
Time: 13:52:42
(UTC+00:00)

deb Explorer IX - Visible Passes

Search period start: 23 January 2021 00:00
Search period end: 02 February 2021 00:00
Orbit: 536 x 1104 km, 38.8° (Epoch: 22 January)

Date Brightness Start Highest point End Pass type
(mag) Time Alt. Az. Time Alt. Az. Time Alt. Az.
23 Jan ? 16:48:25 10° SSW 16:53:38 26° SSE 16:58:18 10° ESE visible
23 Jan ? 18:34:27 10° WSW 18:40:07 42° S 18:40:17 42° S visible
23 Jan ? 20:21:30 10° WSW 20:21:33 10° WSW 20:21:33 10° WSW visible
24 Jan ? 18:10:34 10° WSW 18:16:25 43° S 18:17:59 35° SE visible
24 Jan ? 19:57:40 10° WSW 19:59:15 18° WSW 19:59:15 18° WSW visible
25 Jan ? 17:46:41 10° WSW 17:52:43 44° S 17:55:40 24° ESE visible
25 Jan ? 19:33:48 10° W 19:36:56 27° WSW 19:36:56 27° WSW visible
26 Jan ? 17:22:46 10° WSW 17:28:59 45° S 17:33:22 15° ESE visible
26 Jan ? 19:09:55 10° W 19:14:38 37° SW 19:14:38 37° SW visible
27 Jan ? 16:58:52 10° WSW 17:05:15 46° S 17:10:48 10° ESE visible
27 Jan ? 18:46:01 10° W 18:51:51 41° SSW 18:52:21 40° S visible
28 Jan ? 18:22:07 10° W 18:28:08 42° SSW 18:30:06 32° SSE visible
28 Jan ? 20:10:03 10° WSW 20:11:22 14° WSW 20:11:22 14° WSW visible
29 Jan ? 17:58:11 10° W 18:04:23 43° SSW 18:07:54 21° SE visible
29 Jan ? 19:46:07 10° WSW 19:49:10 19° SW 19:49:10 19° SW visible
30 Jan ? 17:34:16 10° W 17:40:38 44° SSW 17:45:45 12° ESE visible
30 Jan ? 19:22:11 10° WSW 19:26:49 22° SSW 19:27:02 22° SSW visible
31 Jan ? 17:10:20 10° W 17:16:52 45° SSW 17:22:34 10° ESE visible
31 Jan ? 18:58:14 10° W 19:03:06 23° SSW 19:04:58 20° S visible
01 Feb ? 16:46:24 10° W 16:53:03 45° SSW 16:58:57 10° ESE visible
01 Feb ? 18:34:17 10° W 18:39:19 24° SSW 18:42:59 14° SSE visible
